N1653F P19-KDVT

Flight info

Callsign N1653F
Flight time 0h 16m
Altitude 2400
Route KDVT
Aircraft C172/L-SBGRY/LB1

Departure

Time 2026-04-25 16:09
Airport Stellar Airpark (P19)

Arrival

Time 2026-04-25 16:25
Airport Phoenix Deer Valley Airport (KDVT)
Time Latitude Longitude Altitude Speed Heading
2026-04-25 16:03 33.30079 -111.91629 1257 ft 0 kts 359°
2026-04-25 16:05 33.30121 -111.91620 1254 ft 3 kts 126°
2026-04-25 16:06 33.30057 -111.91623 1249 ft 17 kts 181°
2026-04-25 16:06 33.29901 -111.91627 1235 ft 27 kts 178°
2026-04-25 16:06 33.29736 -111.91624 1219 ft 24 kts 182°
2026-04-25 16:06 33.29544 -111.91623 1198 ft 31 kts 180°
2026-04-25 16:07 33.29367 -111.91624 1175 ft 21 kts 181°
2026-04-25 16:07 33.29292 -111.91623 1170 ft 10 kts 152°
2026-04-25 16:07 33.29318 -111.91581 1173 ft 6 kts 358°
2026-04-25 16:07 33.29471 -111.91583 1189 ft 38 kts 360°
2026-04-25 16:08 33.29836 -111.91582 1230 ft 66 kts 360°
2026-04-25 16:08 33.30352 -111.91593 1317 ft 79 kts 358°
2026-04-25 16:08 33.30885 -111.91717 1463 ft 79 kts 334°
2026-04-25 16:08 33.31390 -111.91998 1611 ft 81 kts 332°
2026-04-25 16:09 33.31916 -111.92299 1730 ft 87 kts 336°
2026-04-25 16:09 33.32491 -111.92595 1841 ft 95 kts 335°
2026-04-25 16:09 33.33087 -111.92889 2047 ft 90 kts 336°
2026-04-25 16:09 33.33679 -111.93169 2203 ft 91 kts 338°
2026-04-25 16:10 33.34259 -111.93413 2402 ft 87 kts 339°
2026-04-25 16:10 33.34818 -111.93673 2491 ft 90 kts 336°
2026-04-25 16:10 33.35420 -111.93963 2516 ft 96 kts 336°
2026-04-25 16:10 33.36036 -111.94256 2565 ft 98 kts 337°
2026-04-25 16:11 33.36684 -111.94552 2551 ft 104 kts 339°
2026-04-25 16:11 33.37400 -111.94837 2495 ft 109 kts 346°
2026-04-25 16:11 33.38066 -111.95011 2495 ft 108 kts 347°
2026-04-25 16:11 33.38823 -111.95200 2440 ft 111 kts 347°
2026-04-25 16:12 33.39566 -111.95391 2418 ft 109 kts 344°
2026-04-25 16:12 33.40290 -111.95682 2378 ft 109 kts 337°
2026-04-25 16:12 33.40974 -111.96039 2350 ft 108 kts 334°
2026-04-25 16:12 33.41439 -111.96294 2326 ft 109 kts 334°
2026-04-25 16:13 33.42356 -111.96787 2275 ft 109 kts 336°
2026-04-25 16:13 33.43063 -111.97126 2226 ft 110 kts 338°
2026-04-25 16:13 33.43783 -111.97453 2187 ft 111 kts 338°
2026-04-25 16:13 33.44508 -111.97773 2156 ft 112 kts 338°
2026-04-25 16:14 33.45243 -111.98093 2128 ft 112 kts 339°
2026-04-25 16:14 33.45935 -111.98392 2106 ft 113 kts 339°
2026-04-25 16:14 33.46676 -111.98711 2074 ft 113 kts 339°
2026-04-25 16:14 33.47413 -111.99029 2043 ft 115 kts 339°
2026-04-25 16:15 33.48167 -111.99352 2022 ft 116 kts 339°
2026-04-25 16:15 33.48927 -111.99680 2002 ft 116 kts 339°
2026-04-25 16:15 33.49693 -112.00009 1984 ft 117 kts 339°
2026-04-25 16:15 33.50469 -112.00345 1985 ft 121 kts 339°
2026-04-25 16:16 33.51250 -112.00682 2097 ft 117 kts 339°
2026-04-25 16:16 33.52023 -112.00832 2262 ft 113 kts
2026-04-25 16:16 33.52776 -112.00714 2445 ft 107 kts
2026-04-25 16:16 33.53537 -112.00677 2513 ft 109 kts 359°
2026-04-25 16:17 33.54285 -112.00655 2648 ft 107 kts 358°
2026-04-25 16:17 33.55027 -112.00784 2659 ft 114 kts 339°
2026-04-25 16:17 33.55719 -112.01266 2671 ft 114 kts 321°
2026-04-25 16:17 33.56345 -112.01877 2591 ft 115 kts 319°
2026-04-25 16:18 33.56927 -112.02509 2582 ft 112 kts 315°
2026-04-25 16:18 33.57119 -112.02729 2568 ft 113 kts 315°
2026-04-25 16:18 33.58089 -112.03769 2502 ft 113 kts 316°
2026-04-25 16:18 33.58653 -112.04394 2524 ft 108 kts 320°
2026-04-25 16:19 33.59255 -112.04929 2512 ft 109 kts 325°
2026-04-25 16:19 33.59899 -112.05421 2504 ft 109 kts 327°
2026-04-25 16:19 33.60564 -112.05851 2481 ft 109 kts 332°
2026-04-25 16:20 33.61900 -112.06709 2422 ft 110 kts 330°
2026-04-25 16:20 33.62549 -112.07178 2375 ft 109 kts 329°
2026-04-25 16:20 33.63821 -112.08074 2395 ft 103 kts 331°
2026-04-25 16:21 33.64497 -112.08437 2354 ft 106 kts 342°
2026-04-25 16:21 33.65227 -112.08478 2354 ft 106 kts
2026-04-25 16:21 33.65959 -112.08399 2324 ft 106 kts
2026-04-25 16:21 33.66562 -112.07929 2331 ft 106 kts 51°
2026-04-25 16:22 33.66870 -112.07132 2329 ft 106 kts 75°
2026-04-25 16:22 33.67016 -112.06258 2300 ft 108 kts 83°
2026-04-25 16:22 33.67129 -112.05370 2313 ft 107 kts 79°
2026-04-25 16:22 33.67284 -112.04497 2314 ft 107 kts 76°
2026-04-25 16:23 33.67487 -112.03675 2367 ft 97 kts 71°
2026-04-25 16:23 33.67888 -112.03157 2385 ft 87 kts 355°
2026-04-25 16:23 33.68421 -112.03408 2337 ft 85 kts 332°
2026-04-25 16:23 33.68831 -112.03905 2239 ft 89 kts 292°
2026-04-25 16:24 33.68950 -112.04675 2057 ft 97 kts 272°
2026-04-25 16:24 33.68936 -112.05428 1934 ft 88 kts 265°
2026-04-25 16:24 33.68885 -112.06150 1752 ft 86 kts 268°
2026-04-25 16:24 33.68844 -112.06859 1595 ft 81 kts 267°
2026-04-25 16:25 33.68810 -112.07488 1482 ft 70 kts 267°
2026-04-25 16:25 33.68800 -112.07677 1476 ft 64 kts 265°
2026-04-25 16:25 33.68750 -112.08189 1464 ft 14 kts 187°
2026-04-25 16:25 33.68707 -112.08144 1466 ft 9 kts 129°
2026-04-25 16:26 33.68651 -112.08112 1465 ft 10 kts 153°
2026-04-25 16:26 33.68635 -112.08048 1466 ft 6 kts 123°
2026-04-25 16:26 33.68598 -112.07999 1461 ft 10 kts 148°
2026-04-25 16:26 33.68545 -112.07989 1466 ft 7 kts 275°
2026-04-25 16:27 33.68550 -112.07995 1466 ft 2 kts
2026-04-25 16:27 33.68559 -112.07990 1463 ft 0 kts 354°